Location: Newark
(18.8198°N, 82.1672°E)
Time: 06:51:30
(UTC+00:00)

BEESAT - Visible Passes

Search period start: 19 October 2019 00:00
Search period end: 29 October 2019 00:00
Orbit: 700 x 709 km, 98.6° (Epoch: 18 October)

Date Brightness Start Highest point End Pass type
(mag) Time Alt. Az. Time Alt. Az. Time Alt. Az.
19 Oct ? 12:55:14 10° NW 12:57:10 12° WNW 12:59:07 10° W visible
19 Oct ? 22:12:29 10° E 22:14:16 12° ENE 22:16:03 10° NE visible
19 Oct ? 23:47:06 10° S 23:51:35 41° W 23:56:04 10° NNW visible
20 Oct ? 22:52:57 10° SE 22:57:24 40° ENE 23:01:51 10° N visible
21 Oct ? 12:43:21 10° NNW 12:46:25 17° WNW 12:49:28 10° WSW visible
21 Oct ? 23:36:03 10° S 23:40:44 57° WSW 23:45:26 10° NNW visible
22 Oct ? 22:42:31 10° SE 22:46:37 29° ENE 22:50:43 10° NNE visible
23 Oct ? 12:31:55 10° NNW 12:35:39 23° WNW 12:39:22 10° SW visible
23 Oct ? 23:25:08 10° S 23:29:54 80° WSW 23:34:40 10° NNW visible
24 Oct ? 22:32:14 10° ESE 22:35:50 22° ENE 22:39:26 10° NNE visible
25 Oct ? 12:20:40 10° NNW 12:24:52 32° WNW 12:29:02 10° SW visible
25 Oct ? 23:14:20 10° SSE 23:19:05 74° ENE 23:23:49 10° N visible
26 Oct ? 22:22:14 10° ESE 22:25:04 16° ENE 22:27:54 10° NE visible
26 Oct ? 23:58:17 10° SSW 00:02:28 31° W 00:06:41 10° NW visible
27 Oct ? 23:03:38 10° SSE 23:08:15 53° ENE 23:12:53 10° N visible
28 Oct ? 12:55:03 10° NW 12:57:13 13° WNW 12:59:22 10° W visible
28 Oct ? 22:12:50 10° E 22:14:19 11° ENE 22:15:48 10° NE visible
28 Oct ? 23:47:07 10° S 23:51:37 43° W 23:56:08 10° NNW visible
